Preview of NWS' New Version of Forecast
This preview is not operational and should not be used for support decisions.

Regional Weather Roundup (RWR)

Issued by National Weather Service (NWS)

                            
000
ASUS43 KDMX 181401
RWRIA 

WEATHER ROUNDUP FOR IOWA
NATIONAL WEATHER SERVICE DES MOINES IA
900 AM CDT WED SEP 18 2019

NOTE: "FAIR" INDICATES FEW OR NO CLOUDS BELOW 12,000 FEET WITH NO
SIGNIFICANT WEATHER AND/OR OBSTRUCTIONS TO VISIBILITY.

* - THESE STATIONS ARE NOT NWS STATIONS...THUS NOT UNDER NWS
QUALITY CONTROL.  THEY ALSO DO NOT REPORT WEATHER SUCH 
AS PRECIPITATION OR FOG.  

IAZ001>003-012>014-020>022-031>034-043>046-181500-
   NORTHWEST IOWA
  
CITY           SKY/WX    TMP DP  RH WIND       PRES   REMARKS
CARROLL *      CLOUDY    75  68  78 VRB6      29.95R                  
CHEROKEE *     SUNNY     72  70  93 S8        29.90R                  
DENISON *      MOSUNNY   72  72 100 S10G18    29.95R                  
LE MARS *      SUNNY     73  72  94 SW6       29.89R                  
SHELDON *      SUNNY     72  70  94 SW8       29.86F                  
SIOUX CITY     SUNNY     75  69  81 SW3       29.89R                  
SPENCER        SUNNY     73  68  84 S13       29.89S                  
STORM LAKE *   SUNNY     70  70 100 S7        29.90R FOG              
$$
 
IAZ055>058-069>071-079>083-090>094-181500-
   SOUTHWEST IOWA
  
CITY           SKY/WX    TMP DP  RH WIND       PRES   REMARKS
ATLANTIC *     MOSUNNY   75  70  83 S9G16     29.94R                  
AUDUBON *        N/A     73  68  83 S6        29.97R                  
CLARINDA *     SUNNY     73  72  94 S6        29.97R                  
COUNCIL BLFS * PTSUNNY   77  72  83 SW13      29.92R                  
CRESTON *      SUNNY     75  70  83 S12       29.97S                  
HARLAN  *      PTSUNNY   73  70  88 S8        29.95R                  
LAMONI         SUNNY     74  70  87 S7        29.98S                  
RED OAK *      PTSUNNY   77  70  78 S8G14     29.94R HAZE             
SHENANDOAH *   SUNNY     77  68  73 S8        29.92S                  
$$
 
IAZ047>049-059>061-072>074-084-181500-
   CENTRAL IOWA
  
CITY           SKY/WX    TMP DP  RH WIND       PRES   REMARKS
AMES           SUNNY     73  71  93 S10       29.97R FOG              
ANKENY *       SUNNY     75  72  88 S9G16     29.98R                  
BOONE *        SUNNY     77  75  94 S7G15     29.96R                  
CHARITON *     SUNNY     73  73 100 S10       29.99R                  
DES MOINES     MOSUNNY   75  70  84 S10       29.96R                  
GRINNELL*      SUNNY     72  67  87 SE10      30.02S HAZE             
KNOXVILLE *    SUNNY     73  72  94 S9        29.99R                  
MARSHALLTOWN   SUNNY     72  69  90 S12       29.98S                  
NEWTON *       SUNNY     73  70  88 S12       29.99R                  
PELLA *        SUNNY     75  67  76 S8        30.01R                  
PERRY *        PTSUNNY   75  69  80 S10       29.95R                  
$$
 
IAZ004>006-015-016-023>025-035-036-181500-
   NORTH CENTRAL IOWA
  
CITY           SKY/WX    TMP DP  RH WIND       PRES   REMARKS
ALGONA *       PTSUNNY   70  70 100 S13       29.92F                  
CLARION *      CLOUDY    72  72 100 NW8       30.00R FOG              
ESTHERVILLE    SUNNY     69  67  93 S18       29.88F                  
FORT DODGE *   TSTM      72  69  90 CALM      29.98S                  
MASON CITY     TSTM      68  66  93 N8        30.03R FOG              
FOREST CITY *  RAIN      70  70 100 SE9       29.97F                  
IOWA FALLS *     N/A     73  67  79 SE15      29.99R                  
$$

IAZ007>011-017>019-026>030-037>042-050>054-066-181500-
   NORTHEAST IOWA
  
CITY           SKY/WX    TMP DP  RH WIND       PRES   REMARKS
CEDAR RAPIDS   FAIR      70  66  87 S10       30.02F                  
CHARLES CITY * FAIR      72  68  88 S9        30.01S                  
CLINTON *      FAIR      68  63  84 SE9       30.09R                  
DECORAH *      FAIR      70  66  88 S7G14     30.03R                  
DUBUQUE        FAIR      67  64  90 S13       30.08R                  
MONTICELLO *   FAIR      68  68 100 SE7       30.06S                  
OELWEIN *      SUNNY     70  70 100 S14       30.03S                  
WATERLOO       FAIR      74  66  76 SE10      30.00R                  
$$
 
IAZ064-065-067-068-078-181500-
   EAST CENTRAL IOWA
  
CITY           SKY/WX    TMP DP  RH WIND       PRES   REMARKS
DAVENPORT      FAIR      71  63  75 S7        30.09R                  
IOWA CITY      FAIR      71  66  84 SE9       30.05S                  
MUSCATINE *    FAIR      70  66  88 SE7       30.06R                  
QUAD CITIES    FAIR      71  64  78 VRB3      30.07R                  
$$
 
IAZ062-063-075>077-085>089-095>099-181500-
   SOUTHEAST IOWA
  
CITY           SKY/WX    TMP DP  RH WIND       PRES   REMARKS
BURLINGTON     SUNNY     72  64  76 S7        30.06R                  
FAIRFIELD *    SUNNY     72  68  88 S12       30.03R                  
FORT MADISON * SUNNY     72  68  88 SE6       30.05R                  
KEOKUK *       SUNNY     72  68  88 SE8G14    30.04R                  
OSKALOOSA *    FAIR      73  67  80 S10       30.02R                  
OTTUMWA        SUNNY     74  67  78 S12       30.01R                  
WASHINGTON *     N/A    N/A N/A N/A MISG        N/A                   
$$

ABBREVIATIONS USED IN REMARKS
   TC - TEMPERATURES IN CELSIUS
  WCI - WIND CHILL INDEX
   HX - HEAT INDEX
  VSB - VISIBILITY  
$$